Home > Weather > Youngstown > Past weeks

Flag for U.S.A. Weather for the Past 2 Weeks in Youngstown, Ohio, U.S.A.

Now
36 °F

Light rain. Fog.


Feels Like: 29 °F
Forecast: 32 / 46 °F
Wind: 9 mph from South

Location: Youngstown-Warren Regional Airport

Current Time: Feb 8, 2016 at 4:15:23 PM

Latest Report: Feb 8, 2016 at 3:51 PM


Visibility: 4 mi

Pressure: 29.57 "Hg

Humidity: 89%

Dew point: 33 °F

Location of YoungstownLocation

Historic Weather in Youngstown — Graph

°F

Youngstown Temperature Yesterday

Maximum temperature yesterday: 50 °F (at 1:51 PM)
Minimum temperature yesterday: 23 °F (at 6:51 AM)
Average temperature yesterday: 38 °F

High & Low Weather Summary for the Past Weeks

 TemperatureHumidityPressure
High62 °F (Feb 3, 2:51 PM)93% (Feb 3, 2:58 AM)30.40 "Hg (Feb 3, 2:58 AM)
Low16 °F (Jan 29, 8:51 PM)34% (Jan 25, 2:51 PM)29.56 "Hg (Feb 8, 1:51 PM)
Average36 °F66%29.99 "Hg
* Reported Jan 24 2:51 PM — Feb 8 2:51 PM, Youngstown, Weather by CustomWeather, © 2016

Note: Actual official high and low records may vary slightly from our data, if they occured in-between our weather recording intervals... More about our weather records

Advertising

Youngstown Weather History for the Previous 24 Hours

 ConditionsComfort  
Time TempWeatherWind HumidityBarometerVisibility
2:51 PM
Mon, Feb 8
37 °FLight rain. Fog.8 mph86%29.56 "Hg3 mi
1:51 PM36 °FLight rain. Fog.6 mph89%29.56 "Hg6 mi
12:51 PM36 °FLight snow. Mostly cloudy.8 mph82%29.59 "Hg2 mi
11:51 AM40 °FOvercast.10 mph58%29.61 "Hg10 mi
10:51 AM39 °FMostly cloudy.9 mph57%29.62 "Hg10 mi
9:51 AM38 °FMostly cloudy.7 mph60%29.63 "Hg10 mi
8:51 AM36 °FCloudy.7 mph62%29.65 "Hg10 mi
7:51 AM33 °FPartly sunny.7 mph70%29.67 "Hg10 mi
6:51 AM35 °FPassing clouds.7 mph61%29.67 "Hg10 mi
5:51 AM37 °FMostly cloudy.8 mph60%29.67 "Hg10 mi
4:51 AM38 °FMostly cloudy.9 mph55%29.68 "Hg10 mi
3:51 AM38 °FOvercast.9 mph55%29.70 "Hg10 mi
2:51 AM39 °FPassing clouds.8 mph53%29.72 "Hg10 mi
1:51 AM39 °FPassing clouds.8 mph53%29.75 "Hg10 mi
12:51 AM41 °FPartly cloudy.8 mph49%29.78 "Hg10 mi
11:51 PM
Sun, Feb 7
41 °FPassing clouds.7 mph49%29.81 "Hg10 mi
10:51 PM41 °FPassing clouds.8 mph49%29.83 "Hg10 mi
9:51 PM42 °FPassing clouds.6 mph49%29.86 "Hg10 mi
8:51 PM43 °FMostly cloudy.5 mph47%29.88 "Hg10 mi
7:51 PM45 °FMostly cloudy.5 mph44%29.89 "Hg10 mi
6:51 PM45 °FMostly cloudy.5 mph45%29.90 "Hg10 mi
5:51 PM47 °FMostly cloudy.7 mph42%29.91 "Hg10 mi
4:51 PM48 °FMostly cloudy.10 mph41%29.90 "Hg10 mi
Weather by CustomWeather, © 2016

See weather overviewHow to use our weather pages